SCP
0 0 0 0 0 0 0 0 0 0 0 0 -0 -0 -0 -0 0 0 0 0 0 -0 0 0 0 0 0 0 0 0 0 0 0 0 0 0 0 0 0 0 0 0 0 0
0 -0 -0 0 0 0 0 0 0 0 0 0 0 0 -0 -0 0 0 0 0 0 0 0 0 0 0 0 0 0 0 0 0 0 0 0 0 0 0 0 0 0 0 0 0
0 -0 -0 0 0 0 0 0 0 0 -0 0 0 -0 -0 0 0 0 0 0 0 -0 -0 0 0 0 0 0 0 0 0 0 0 0 0 0 0 0 0 0 0 0 0 0
0 -0 -0 0 0 0 0 0 0 0 -0 -0 -0 -0 0 -0 -0 0 0 0 0 0 0 0 0 0 0 0 0 0 0 0 0 0 0 0 0 0 0 0 0 0 0 0
-0 -0 -0 0 -0 0 0 0 0 0 0 0 -0 0 0 -0 -0 0 0 0 0 0 0 0 0 0 0 0 0 0 0 0 0 0 0 0 0 0 0 0 0 0 0 0
-0 -0 0 -0 0 0 0 0 0 0 0 0 0 0 0 -0 0 0 0 0 0 0 0 0 0 0 0 0 0 0 0 0 0 0 0 0 0 0 0 0 0 0 0 0
-0 -0 -0 0 0 0 0 0 0 0 0 0 0 0 0 0 0 0 0 0 0 0 0 0 0 0 0 0 0 0 0 0 0 0 0 0 0 0 0 0 0 0 0 0
-0 -0 -0 -0 0 -0 0 0 0 0 0 0 0 0 0 0 0 0 -0 0 0 0 0 0 0 0 0 0 0 0 0 0 0 0 0 0 0 0 0 0 0 0 0 0
0 0 0 0 0 -0 0 0 0 0 0 0 0 0 -0 0 0 0 0 0 0 0 0 0 0 0 0 0 0 0 0 0 0 0 0 0 0 0 0 0 0 0 0 0
-0 0 0 0 0 0 -0 0 0 0 0 0 -0 0 0 0 0 0 0 0 0 0 0 0 0 0 0 0 0 0 0 0 0 0 0 0 0 0 0 0 0 0 0 0
-0 0 0 0 0 0 0 0 0 0 0 0 0 0 0 0 0 0 0 0 0 0 0 0 0 0 0 0 0 0 0 0 0 0 0 0 0 0 0 0 0 0 0 0
0 0 0 0 0 0 0 0 0 0 0 0 0 0 0 0 0 0 0 0 0 0 -0 0 0 0 0 0 0 0 0 0 0 0 0 0 0 0 0 0 0 0 0 0
0 0 0 0 0 0 0 0 0 0 0 0 0 0 0 0 0 0 0 0 -0 -0 0 -0 0 0 0 0 0 0 0 0 0 0 0 0 0 0 0 0 0 0 0 0
0 0 0 0 0 0 0 0 0 0 0 0 0 0 0 0 0 0 0 0 0 0 0 0 0 0 0 0 0 0 0 0 0 0 0 0 0 0 0 0 0 0 0 0
0 0 0 0 0 -0 0 0 0 0 0 0 0 -0 -0 0 0 0 0 0 0 0 0 0 0 0 0 0 0 0 0 0 0 0 0 0 0 0 0 0 0 0 0 0
0 0 0 0 0 0 0 0 0 0 0 0 0 0 0 0 0 -0 -0 -0 0 0 0 0 0 0 0 0 0 0 0 0 0 0 0 0 0 0 0 0 0 0 0 0
0 0 0 -0 0 0 0 0 -0 0 0 0 0 0 0 -0 -0 -0 -0 -0 0 0 0 0 1 0 0 0 0 0 0 0 0 0 0 0 0 0 0 0 0 0 0 0
0 0 0 0 0 0 0 0 0 0 0 0 0 0 0 0 -0 0 -0 0 0 0 0 0 0 0 0 0 0 0 0 0 0 0 0 0 0 0 0 0 0 0 0 0
0 0 0 0 0 0 0 0 0 0 1 0 0 0 0 0 0 0 0 0 0 0 0 0 0 0 0 0 0 0 0 0 0 0 0 0 0 0 0 0 0 0 0 0
1 0 0 0 0 0 0 0 0 0 0 0 0 0 0 0 0 0 0 0 0 0 0 0 0 0 0 0 0 0 0 0 0 0 0 0 0 0 0 0 0 0 0 0
0 0 0 0 0 0 0 0 0 0 0 0 -0 0 0 0 0 0 0 0 0 0 0 0 0 0 0 0 0 0 0 0 0 0 0 0 0 0 0 0 0 0 0 0
0 0 0 0 0 0 0 0 0 0 0 0 0 0 0 0 0 0 0 0 0 0 0 0 0 0 0 0 0 0 0 0 0 0 0 0 0 0 0 0 0 0 0 0
0 0 0 0 0 0 1 0 0 0 0 0 0 0 0 0 0 0 0 0 0 0 0 0 0 0 0 0 0 0 0 0 0 0 0 0 0 0 0 0 0 0 0 0
-0 0 0 0 0 0 0 1 0 0 0 -0 0 0 0 0 0 0 0 0 0 0 0 0 0 0 0 0 0 0 0 0 0 0 0 0 0 0 0 0 0 0 0 0
0 0 0 0 0 0 0 0 0 0 -0 -0 0 0 0 0 0 0 1 1 1 0 0 0 0 0 0 0 0 0 0 0 0 0 0 0 0 0 0 0 0 0 0 0
0 0 0 0 0 0 0 0 -0 0 -0 0 0 0 0 1 1 1 1 1 1 0 0 0 0 0 0 0 0 0 0 0 0 0 0 0 0 0 0 0 0 0 0 0
Wind_Speed_500mb
36 4 20 25 23 6 16 18 27 29 24 5 3 16 38 52 47 42 51 57 52 56 51 42 35 20 5 8 17 22 18 7 8 7 9 5 6 10 10 21 25 35 37 36
12 24 43 5 21 20 5 7 10 14 8 9 14 7 31 49 46 41 63 53 50 47 60 50 40 22 12 7 15 19 18 8 3 7 11 11 10 6 8 17 22 33 31 39
11 24 9 5 12 14 6 6 12 22 9 7 10 18 37 34 44 47 47 46 47 66 64 51 47 33 22 17 15 14 14 8 7 7 6 8 11 3 6 11 20 26 27 33
18 35 17 22 12 7 5 4 10 34 15 7 9 11 5 27 28 38 54 56 48 64 62 53 53 45 30 27 15 13 13 12 4 7 10 18 10 8 1 11 10 13 19 25
32 23 16 11 1 2 7 16 25 19 11 7 3 5 29 39 17 23 44 61 63 71 70 63 62 49 37 33 21 12 11 11 6 4 9 8 9 15 10 8 6 10 13 18
24 56 8 4 11 11 9 11 7 8 8 6 13 12 10 13 22 22 37 57 65 70 67 64 58 54 45 38 26 15 9 13 11 6 0 1 2 8 11 6 2 3 15 19
21 26 11 10 12 11 13 14 8 10 3 10 3 10 17 23 11 12 32 56 48 65 67 63 68 65 58 45 27 17 14 10 11 8 4 7 1 6 1 7 12 14 7 17
7 25 11 17 11 15 4 12 10 8 5 9 5 7 7 17 22 32 20 48 45 47 63 69 73 66 60 38 29 21 19 14 13 10 9 12 6 7 10 12 19 9 13 12
8 10 8 8 12 23 2 11 9 5 8 8 6 11 14 34 38 21 21 5 52 49 63 70 67 65 47 35 37 27 26 19 14 13 15 14 11 7 10 11 9 12 15 18
17 5 5 7 13 11 15 3 21 16 8 8 11 7 10 14 25 23 13 22 8 56 74 69 68 61 52 39 40 34 27 21 16 18 15 13 13 16 14 19 18 17 21 25
18 12 1 9 4 4 13 9 7 7 5 1 4 11 12 15 12 12 16 5 42 85 73 79 72 61 54 40 40 39 31 20 18 18 16 16 19 23 19 22 23 22 24 26
10 8 7 16 6 12 12 18 15 9 8 5 3 12 13 9 19 10 20 30 53 86 31 52 65 68 56 42 41 40 30 13 10 17 18 20 23 24 24 23 23 25 31 30
6 6 7 16 10 3 8 11 11 10 8 9 8 11 6 3 13 13 52 57 62 79 51 65 66 61 52 46 38 38 26 16 16 17 19 23 26 24 24 26 29 31 33 32
8 5 9 10 16 11 14 10 10 14 8 8 12 9 10 5 14 37 27 21 21 22 17 24 31 47 52 43 44 35 25 13 8 16 18 20 23 27 32 33 33 31 32 31
7 1 6 12 16 29 9 2 26 18 16 13 15 12 16 12 12 28 21 9 13 37 9 51 64 70 51 45 43 32 22 21 17 16 15 19 23 28 28 31 36 33 31 31
2 3 7 13 20 28 6 13 16 5 14 5 15 15 17 33 41 26 22 24 16 24 41 43 29 46 43 46 39 31 26 20 16 17 17 21 21 24 32 36 38 36 38 39
6 4 4 12 18 21 14 29 16 12 15 11 12 17 42 25 30 34 17 9 17 28 32 24 26 29 33 28 28 21 13 10 16 20 21 14 19 25 31 36 41 42 43 46
3 4 2 9 12 13 12 6 8 23 24 26 17 15 33 39 28 26 23 25 27 25 27 28 29 28 31 29 11 8 2 9 17 19 20 19 18 21 28 36 43 47 49 52
17 8 0 3 7 14 14 17 12 8 6 17 22 17 39 42 38 28 22 25 22 16 18 18 16 20 24 19 12 8 4 9 16 22 24 25 25 29 34 42 48 53 54 57
12 14 9 3 7 13 5 4 27 5 7 23 15 24 26 27 9 3 15 14 16 17 18 15 17 20 22 16 4 4 7 12 17 20 23 26 30 35 42 48 53 50 58 68
7 7 2 4 2 5 6 9 3 8 14 14 38 15 15 8 13 26 19 13 13 19 20 14 16 22 19 13 12 17 19 22 24 24 25 30 35 39 44 50 53 57 67 70
5 2 2 5 4 12 14 4 9 12 11 37 28 15 21 8 16 29 28 22 18 14 23 13 14 20 17 15 17 13 11 14 26 25 26 39 40 44 48 50 53 54 54 54
3 3 7 11 12 23 18 37 44 43 48 54 15 26 25 22 30 10 24 24 24 21 17 19 13 18 18 10 7 17 27 22 25 35 41 42 42 41 39 40 40 51 51 55
12 10 3 13 16 43 36 12 12 10 58 42 14 11 20 32 23 21 9 19 25 19 19 21 28 31 27 17 8 17 32 19 26 33 38 36 39 41 42 47 40 46 51 54
11 11 3 13 21 50 61 31 9 29 38 29 15 19 17 18 21 22 31 21 29 28 33 31 35 32 22 11 17 18 18 24 30 32 33 33 38 41 39 43 45 42 46 51
3 10 8 8 23 47 30 9 29 33 34 32 21 24 25 17 20 16 28 29 34 36 33 33 29 21 18 15 17 19 20 24 26 28 31 42 32 42 40 36 39 43 44 41
Wind_Direction_500mb
280 101 253 218 212 230 173 195 189 213 230 188 333 163 174 178 205 196 182 194 203 196 194 172 191 223 263 349 358 9 30 91 97 162 185 171 178 34 343 342 345 355 8 15
311 238 233 188 201 201 23 40 288 323 196 95 21 196 185 181 200 200 176 198 206 194 179 177 189 203 232 298 322 354 11 49 141 127 93 122 101 60 7 343 348 348 5 11
278 278 321 30 74 68 267 272 54 71 16 66 14 326 167 194 193 198 191 200 200 183 179 180 189 194 218 228 287 327 353 23 99 153 119 145 125 186 325 315 335 358 347 359
279 309 306 95 114 132 253 208 84 43 56 307 31 309 338 173 198 202 198 198 195 186 186 188 187 189 207 223 251 301 336 352 67 209 143 172 160 186 91 302 352 351 321 343
278 305 354 9 75 147 233 74 99 94 121 79 108 114 336 334 219 208 198 200 202 191 190 189 187 192 198 213 240 279 319 338 359 174 205 226 216 215 243 53 43 0 337 332
280 296 262 273 5 349 67 105 33 65 99 19 235 121 238 213 235 227 201 206 205 192 191 189 191 188 196 204 231 254 304 321 343 346 266 280 67 108 155 79 8 165 356 337
287 285 314 49 348 349 45 48 352 1 336 243 99 61 234 269 247 30 190 198 201 188 190 186 189 184 188 199 217 238 268 301 321 323 309 301 295 131 168 240 271 271 237 331
302 317 12 359 342 277 112 147 147 240 312 262 189 216 229 280 46 33 360 199 182 174 185 186 186 184 184 198 216 231 247 268 294 296 286 286 292 228 257 273 295 247 262 302
250 274 223 280 230 317 106 24 178 151 311 16 156 307 300 63 64 63 306 353 184 188 184 177 180 184 190 202 218 232 230 245 268 285 284 292 295 325 265 311 316 334 330 300
252 178 201 293 306 45 111 36 21 350 357 315 333 298 250 134 168 219 241 258 199 206 182 184 188 184 198 203 215 225 222 241 265 274 295 301 301 309 311 315 326 320 322 332
201 163 192 111 253 66 25 42 84 191 215 158 275 265 231 190 171 156 44 59 20 356 179 184 179 186 188 198 217 216 212 228 250 281 292 286 286 298 297 296 309 309 314 317
348 142 156 207 179 114 143 177 156 161 255 206 195 293 23 112 123 95 344 45 15 14 303 171 183 185 191 201 211 215 210 225 271 280 276 282 293 310 320 320 317 304 303 310
326 7 18 343 22 301 202 228 115 109 63 224 133 261 30 111 72 70 38 15 5 11 17 339 180 189 189 192 209 213 211 197 214 252 271 292 299 302 312 314 315 307 305 305
60 77 142 205 253 264 299 219 155 155 128 198 223 217 247 273 81 75 56 5 21 336 339 353 247 225 194 190 193 198 196 199 215 243 272 271 283 294 305 308 307 303 306 306
98 110 335 306 314 303 322 168 267 193 166 177 276 160 222 154 148 117 130 24 98 148 182 244 224 212 188 190 194 197 197 201 224 265 274 272 285 295 299 307 315 315 315 311
130 270 347 313 296 310 327 258 300 345 95 193 49 52 100 126 145 149 188 191 165 211 252 252 228 194 194 187 195 196 209 230 275 302 286 276 285 293 301 308 318 317 315 315
142 176 49 289 313 322 341 353 334 66 43 61 56 118 137 144 143 146 148 110 63 54 48 63 135 159 169 180 181 197 223 272 308 314 321 290 298 296 301 305 310 313 315 315
194 10 102 266 340 326 236 152 270 73 42 23 42 94 127 130 134 134 117 110 83 76 83 91 109 115 129 156 161 160 211 317 317 322 328 331 314 300 296 296 300 305 308 311
184 140 115 127 276 274 21 5 332 109 9 9 359 4 140 124 107 99 90 89 92 80 87 98 100 113 127 119 132 151 220 313 324 324 321 319 313 302 295 295 300 304 309 310
93 95 121 13 304 283 247 282 288 197 340 316 309 321 62 68 78 212 101 96 98 92 98 92 83 96 107 115 123 10 18 348 339 330 319 312 307 304 304 306 311 312 313 314
19 350 134 109 164 266 249 219 18 72 239 236 247 285 93 111 159 151 162 155 128 117 117 103 80 94 91 89 70 43 20 3 337 326 323 326 319 313 311 309 313 318 322 325
120 93 297 9 111 294 209 276 179 316 257 227 248 76 142 127 175 178 178 174 151 119 130 132 109 92 88 73 81 59 11 10 343 325 319 321 322 330 332 327 325 328 338 348
338 169 201 179 214 249 214 39 30 12 2 308 135 53 67 58 64 167 201 177 162 145 142 150 118 97 115 133 153 355 359 330 339 315 317 328 327 333 341 343 352 354 356 351
209 154 23 16 1 33 100 118 56 91 62 339 69 105 97 70 53 37 76 176 154 155 151 121 130 138 147 168 201 328 341 313 332 320 332 340 335 331 334 342 6 3 7 17
60 75 332 279 28 60 27 18 31 107 147 177 166 103 90 89 75 81 93 110 133 130 132 124 119 116 109 53 355 354 338 328 324 334 336 342 346 355 20 15 11 13 8 9
113 193 172 230 111 112 168 195 228 232 167 139 137 112 93 110 93 96 97 102 122 121 110 101 90 64 40 35 21 6 1 354 347 4 7 359 21 21 19 18 359 5 17 22
Wind_Speed_850mb
36 4 20 25 23 6 16 18 27 29 24 5 3 16 38 52 47 42 51 57 52 56 51 42 35 20 5 8 17 22 18 7 8 7 9 5 6 10 10 21 25 35 37 36
12 24 43 5 21 20 5 7 10 14 8 9 14 7 31 49 46 41 63 53 50 47 60 50 40 22 12 7 15 19 18 8 3 7 11 11 10 6 8 17 22 33 31 39
11 24 9 5 12 14 6 6 12 22 9 7 10 18 37 34 44 47 47 46 47 66 64 51 47 33 22 17 15 14 14 8 7 7 6 8 11 3 6 11 20 26 27 33
18 35 17 22 12 7 5 4 10 34 15 7 9 11 5 27 28 38 54 56 48 64 62 53 53 45 30 27 15 13 13 12 4 7 10 18 10 8 1 11 10 13 19 25
32 23 16 11 1 2 7 16 25 19 11 7 3 5 29 39 17 23 44 61 63 71 70 63 62 49 37 33 21 12 11 11 6 4 9 8 9 15 10 8 6 10 13 18
24 56 8 4 11 11 9 11 7 8 8 6 13 12 10 13 22 22 37 57 65 70 67 64 58 54 45 38 26 15 9 13 11 6 0 1 2 8 11 6 2 3 15 19
21 26 11 10 12 11 13 14 8 10 3 10 3 10 17 23 11 12 32 56 48 65 67 63 68 65 58 45 27 17 14 10 11 8 4 7 1 6 1 7 12 14 7 17
7 25 11 17 11 15 4 12 10 8 5 9 5 7 7 17 22 32 20 48 45 47 63 69 73 66 60 38 29 21 19 14 13 10 9 12 6 7 10 12 19 9 13 12
8 10 8 8 12 23 2 11 9 5 8 8 6 11 14 34 38 21 21 5 52 49 63 70 67 65 47 35 37 27 26 19 14 13 15 14 11 7 10 11 9 12 15 18
17 5 5 7 13 11 15 3 21 16 8 8 11 7 10 14 25 23 13 22 8 56 74 69 68 61 52 39 40 34 27 21 16 18 15 13 13 16 14 19 18 17 21 25
18 12 1 9 4 4 13 9 7 7 5 1 4 11 12 15 12 12 16 5 42 85 73 79 72 61 54 40 40 39 31 20 18 18 16 16 19 23 19 22 23 22 24 26
10 8 7 16 6 12 12 18 15 9 8 5 3 12 13 9 19 10 20 30 53 86 31 52 65 68 56 42 41 40 30 13 10 17 18 20 23 24 24 23 23 25 31 30
6 6 7 16 10 3 8 11 11 10 8 9 8 11 6 3 13 13 52 57 62 79 51 65 66 61 52 46 38 38 26 16 16 17 19 23 26 24 24 26 29 31 33 32
8 5 9 10 16 11 14 10 10 14 8 8 12 9 10 5 14 37 27 21 21 22 17 24 31 47 52 43 44 35 25 13 8 16 18 20 23 27 32 33 33 31 32 31
7 1 6 12 16 29 9 2 26 18 16 13 15 12 16 12 12 28 21 9 13 37 9 51 64 70 51 45 43 32 22 21 17 16 15 19 23 28 28 31 36 33 31 31
2 3 7 13 20 28 6 13 16 5 14 5 15 15 17 33 41 26 22 24 16 24 41 43 29 46 43 46 39 31 26 20 16 17 17 21 21 24 32 36 38 36 38 39
6 4 4 12 18 21 14 29 16 12 15 11 12 17 42 25 30 34 17 9 17 28 32 24 26 29 33 28 28 21 13 10 16 20 21 14 19 25 31 36 41 42 43 46
3 4 2 9 12 13 12 6 8 23 24 26 17 15 33 39 28 26 23 25 27 25 27 28 29 28 31 29 11 8 2 9 17 19 20 19 18 21 28 36 43 47 49 52
17 8 0 3 7 14 14 17 12 8 6 17 22 17 39 42 38 28 22 25 22 16 18 18 16 20 24 19 12 8 4 9 16 22 24 25 25 29 34 42 48 53 54 57
12 14 9 3 7 13 5 4 27 5 7 23 15 24 26 27 9 3 15 14 16 17 18 15 17 20 22 16 4 4 7 12 17 20 23 26 30 35 42 48 53 50 58 68
7 7 2 4 2 5 6 9 3 8 14 14 38 15 15 8 13 26 19 13 13 19 20 14 16 22 19 13 12 17 19 22 24 24 25 30 35 39 44 50 53 57 67 70
5 2 2 5 4 12 14 4 9 12 11 37 28 15 21 8 16 29 28 22 18 14 23 13 14 20 17 15 17 13 11 14 26 25 26 39 40 44 48 50 53 54 54 54
3 3 7 11 12 23 18 37 44 43 48 54 15 26 25 22 30 10 24 24 24 21 17 19 13 18 18 10 7 17 27 22 25 35 41 42 42 41 39 40 40 51 51 55
12 10 3 13 16 43 36 12 12 10 58 42 14 11 20 32 23 21 9 19 25 19 19 21 28 31 27 17 8 17 32 19 26 33 38 36 39 41 42 47 40 46 51 54
11 11 3 13 21 50 61 31 9 29 38 29 15 19 17 18 21 22 31 21 29 28 33 31 35 32 22 11 17 18 18 24 30 32 33 33 38 41 39 43 45 42 46 51
3 10 8 8 23 47 30 9 29 33 34 32 21 24 25 17 20 16 28 29 34 36 33 33 29 21 18 15 17 19 20 24 26 28 31 42 32 42 40 36 39 43 44 41
Wind_Direction_850mb
280 101 253 218 212 230 173 195 189 213 230 188 333 163 174 178 205 196 182 194 203 196 194 172 191 223 263 349 358 9 30 91 97 162 185 171 178 34 343 342 345 355 8 15
311 238 233 188 201 201 23 40 288 323 196 95 21 196 185 181 200 200 176 198 206 194 179 177 189 203 232 298 322 354 11 49 141 127 93 122 101 60 7 343 348 348 5 11
278 278 321 30 74 68 267 272 54 71 16 66 14 326 167 194 193 198 191 200 200 183 179 180 189 194 218 228 287 327 353 23 99 153 119 145 125 186 325 315 335 358 347 359
279 309 306 95 114 132 253 208 84 43 56 307 31 309 338 173 198 202 198 198 195 186 186 188 187 189 207 223 251 301 336 352 67 209 143 172 160 186 91 302 352 351 321 343
278 305 354 9 75 147 233 74 99 94 121 79 108 114 336 334 219 208 198 200 202 191 190 189 187 192 198 213 240 279 319 338 359 174 205 226 216 215 243 53 43 0 337 332
280 296 262 273 5 349 67 105 33 65 99 19 235 121 238 213 235 227 201 206 205 192 191 189 191 188 196 204 231 254 304 321 343 346 266 280 67 108 155 79 8 165 356 337
287 285 314 49 348 349 45 48 352 1 336 243 99 61 234 269 247 30 190 198 201 188 190 186 189 184 188 199 217 238 268 301 321 323 309 301 295 131 168 240 271 271 237 331
302 317 12 359 342 277 112 147 147 240 312 262 189 216 229 280 46 33 360 199 182 174 185 186 186 184 184 198 216 231 247 268 294 296 286 286 292 228 257 273 295 247 262 302
250 274 223 280 230 317 106 24 178 151 311 16 156 307 300 63 64 63 306 353 184 188 184 177 180 184 190 202 218 232 230 245 268 285 284 292 295 325 265 311 316 334 330 300
252 178 201 293 306 45 111 36 21 350 357 315 333 298 250 134 168 219 241 258 199 206 182 184 188 184 198 203 215 225 222 241 265 274 295 301 301 309 311 315 326 320 322 332
201 163 192 111 253 66 25 42 84 191 215 158 275 265 231 190 171 156 44 59 20 356 179 184 179 186 188 198 217 216 212 228 250 281 292 286 286 298 297 296 309 309 314 317
348 142 156 207 179 114 143 177 156 161 255 206 195 293 23 112 123 95 344 45 15 14 303 171 183 185 191 201 211 215 210 225 271 280 276 282 293 310 320 320 317 304 303 310
326 7 18 343 22 301 202 228 115 109 63 224 133 261 30 111 72 70 38 15 5 11 17 339 180 189 189 192 209 213 211 197 214 252 271 292 299 302 312 314 315 307 305 305
60 77 142 205 253 264 299 219 155 155 128 198 223 217 247 273 81 75 56 5 21 336 339 353 247 225 194 190 193 198 196 199 215 243 272 271 283 294 305 308 307 303 306 306
98 110 335 306 314 303 322 168 267 193 166 177 276 160 222 154 148 117 130 24 98 148 182 244 224 212 188 190 194 197 197 201 224 265 274 272 285 295 299 307 315 315 315 311
130 270 347 313 296 310 327 258 300 345 95 193 49 52 100 126 145 149 188 191 165 211 252 252 228 194 194 187 195 196 209 230 275 302 286 276 285 293 301 308 318 317 315 315
142 176 49 289 313 322 341 353 334 66 43 61 56 118 137 144 143 146 148 110 63 54 48 63 135 159 169 180 181 197 223 272 308 314 321 290 298 296 301 305 310 313 315 315
194 10 102 266 340 326 236 152 270 73 42 23 42 94 127 130 134 134 117 110 83 76 83 91 109 115 129 156 161 160 211 317 317 322 328 331 314 300 296 296 300 305 308 311
184 140 115 127 276 274 21 5 332 109 9 9 359 4 140 124 107 99 90 89 92 80 87 98 100 113 127 119 132 151 220 313 324 324 321 319 313 302 295 295 300 304 309 310
93 95 121 13 304 283 247 282 288 197 340 316 309 321 62 68 78 212 101 96 98 92 98 92 83 96 107 115 123 10 18 348 339 330 319 312 307 304 304 306 311 312 313 314
19 350 134 109 164 266 249 219 18 72 239 236 247 285 93 111 159 151 162 155 128 117 117 103 80 94 91 89 70 43 20 3 337 326 323 326 319 313 311 309 313 318 322 325
120 93 297 9 111 294 209 276 179 316 257 227 248 76 142 127 175 178 178 174 151 119 130 132 109 92 88 73 81 59 11 10 343 325 319 321 322 330 332 327 325 328 338 348
338 169 201 179 214 249 214 39 30 12 2 308 135 53 67 58 64 167 201 177 162 145 142 150 118 97 115 133 153 355 359 330 339 315 317 328 327 333 341 343 352 354 356 351
209 154 23 16 1 33 100 118 56 91 62 339 69 105 97 70 53 37 76 176 154 155 151 121 130 138 147 168 201 328 341 313 332 320 332 340 335 331 334 342 6 3 7 17
60 75 332 279 28 60 27 18 31 107 147 177 166 103 90 89 75 81 93 110 133 130 132 124 119 116 109 53 355 354 338 328 324 334 336 342 346 355 20 15 11 13 8 9
113 193 172 230 111 112 168 195 228 232 167 139 137 112 93 110 93 96 97 102 122 121 110 101 90 64 40 35 21 6 1 354 347 4 7 359 21 21 19 18 359 5 17 22